Waukegan, IL

5:25 PM CDT on October 20, 2019 (GMT -0500)
Waukegan Regional

Weather History for KUGN - September, 2019

Change the Weather History Date:

Monday, September 23, 2019

  Actual Average Record
Temperature  
Mean Temperature 66 °F 59 °F  
Max Temperature 73 °F 68 °F 88 °F (2010)
Min Temperature 57 °F 50 °F 36 °F (2012)
Degree Days  
Heating Degree Days 0 7  
Month to date heating degree days 14 79  
Since 1 July heating degree days 22 107  
Cooling Degree Days 0 1  
Month to date cooling degree days 86 51  
Year to date cooling degree days 574 553  
Growing Degree Days 16 (Base 50)    
Moisture  
Dew Point 55 °F    
Average Humidity 69    
Maximum Humidity 93    
Minimum Humidity 41    
Precipitation  
Precipitation 0.00 in 0.12 in 0.63 in (2001)
Month to date precipitation 9.34 2.59  
Year to date precipitation 37.30 27.04  
Sea Level Pressure  
Sea Level Pressure 29.94 in    
Wind  
Wind Speed 4 mph ()    
Max Wind Speed 14 mph    
Max Gust Speed 24 mph    
Visibility 9.9 miles    
Events      
T = Trace of Precipitation, MM = Missing Value Source: Averaged Metar Reports

Daily Weather History Graph

Daily Weather History Graph

Search for Another Location

Airport or City:

Astronomy

Sep. 23, 2019 Rise Set
Actual Time 6:39 AM CDT 6:47 PM CDT
Civil Twilight 6:11 AM CDT 7:15 PM CDT
Nautical Twilight 5:38 AM CDT 7:48 PM CDT
Astronomical Twilight 5:05 AM CDT 8:21 PM CDT
Moon 12:14 AM CDT (9/23) 3:48 PM CDT (9/23)
Length of Visible Light 13h 03m
Length of Day
12h 07m
Waning Crescent, 33% of the Moon is Illuminated
Sep 23
Waning Crescent
Sep 28
New
Oct 5
First Quarter
Oct 13
Full
Oct 21
Last Quarter

Hourly Weather History & Observations

Time (CDT) Temp. Dew Point Humidity Pressure Visibility Wind Dir Wind Speed Gust Speed Precip Events Conditions
12:33 AM 66.0 °F 63.0 °F 90% 29.85 in 8.0 mi Calm Calm - N/A   Overcast
12:55 AM 66.0 °F 64.0 °F 93% 29.83 in 10.0 mi Calm Calm - N/A   Overcast
1:55 AM 66.0 °F 62.1 °F 87% 29.83 in 10.0 mi NW 4.6 mph - N/A   Overcast
2:55 AM 64.9 °F 61.0 °F 87% 29.84 in 10.0 mi Variable 4.6 mph - N/A   Overcast
3:55 AM 63.0 °F 59.0 °F 87% 29.87 in 10.0 mi WNW 10.4 mph 19.6 mph N/A   Partly Cloudy
4:55 AM 61.0 °F 57.0 °F 87% 29.88 in 10.0 mi NW 8.1 mph - N/A   Clear
5:55 AM 57.9 °F 52.0 °F 81% 29.91 in 10.0 mi WNW 5.8 mph - N/A   Clear
6:55 AM 57.0 °F 52.0 °F 83% 29.94 in 10.0 mi Variable 3.5 mph - N/A   Clear
7:55 AM 59.0 °F 53.1 °F 81% 29.96 in 10.0 mi WNW 8.1 mph - N/A   Clear
8:55 AM 62.1 °F 53.1 °F 72% 29.98 in 10.0 mi WNW 9.2 mph - N/A   Clear
9:55 AM 64.9 °F 54.0 °F 68% 29.99 in 10.0 mi West 5.8 mph - N/A   Clear
10:55 AM 68.0 °F 54.0 °F 61% 29.99 in 10.0 mi WNW 6.9 mph 19.6 mph N/A   Clear
11:55 AM 70.0 °F 53.1 °F 55% 29.99 in 10.0 mi WNW 10.4 mph 19.6 mph N/A   Clear
12:55 PM 71.1 °F 52.0 °F 51% 29.98 in 10.0 mi WNW 9.2 mph - N/A   Partly Cloudy
1:55 PM 73.0 °F 51.1 °F 46% 29.96 in 10.0 mi WNW 6.9 mph 20.7 mph N/A   Mostly Cloudy
2:55 PM 73.0 °F 50.0 °F 44% 29.96 in 10.0 mi West 8.1 mph 19.6 mph N/A   Mostly Cloudy
3:55 PM 73.0 °F 50.0 °F 44% 29.96 in 10.0 mi WNW 9.2 mph - N/A   Mostly Cloudy
4:55 PM 73.0 °F 48.0 °F 41% 29.96 in 10.0 mi NW 8.1 mph - N/A   Scattered Clouds
5:55 PM 70.0 °F 50.0 °F 49% 29.97 in 10.0 mi Calm Calm - N/A   Partly Cloudy
6:55 PM 63.0 °F 53.1 °F 70% 29.98 in 10.0 mi WSW 3.5 mph - N/A   Clear
7:55 PM 60.1 °F - N/A% 29.99 in 10.0 mi Calm Calm - N/A   Clear
8:55 PM 59.0 °F - N/A% 30.00 in 10.0 mi Calm Calm - N/A   Scattered Clouds
9:55 PM 59.0 °F - N/A% 30.00 in 10.0 mi Calm Calm - N/A   Clear
10:55 PM 61.0 °F - N/A% 29.99 in 10.0 mi SW 3.5 mph - N/A   Clear
11:55 PM 60.1 °F - N/A% 29.99 in 10.0 mi Calm Calm - N/A   Clear